TimeEDT,TemperatureF,Dew PointF,Humidity,Sea Level PressureIn,VisibilityMPH,Wind Direction,Wind SpeedMPH,Gust SpeedMPH,PrecipitationIn,Events,Conditions,WindDirDegrees,DateUTC
12:54 AM,61.0,54.0,78,30.15,10.0,SSW,4.6,-,N/A,,Clear,210,2012-10-24 04:54:00
1:54 AM,61.0,55.0,81,30.15,10.0,SW,5.8,-,N/A,,Clear,220,2012-10-24 05:54:00
2:54 AM,59.0,54.0,83,30.16,10.0,SW,4.6,-,N/A,,Clear,230,2012-10-24 06:54:00
3:54 AM,57.9,53.1,84,30.14,10.0,SW,5.8,-,N/A,,Clear,220,2012-10-24 07:54:00
4:54 AM,57.9,52.0,81,30.16,10.0,SW,4.6,-,N/A,,Clear,230,2012-10-24 08:54:00
5:54 AM,57.9,52.0,81,30.16,10.0,SW,4.6,-,N/A,,Clear,230,2012-10-24 09:54:00
6:54 AM,55.9,51.1,84,30.17,10.0,SW,6.9,-,N/A,,Clear,220,2012-10-24 10:54:00
7:54 AM,59.0,52.0,78,30.18,10.0,SW,4.6,-,N/A,,Clear,230,2012-10-24 11:54:00
8:54 AM,64.9,55.9,73,30.19,10.0,West,9.2,-,N/A,,Clear,260,2012-10-24 12:54:00
9:54 AM,70.0,57.0,63,30.18,10.0,West,6.9,-,N/A,,Clear,270,2012-10-24 13:54:00
10:54 AM,75.0,55.9,51,30.17,10.0,WSW,6.9,-,N/A,,Clear,240,2012-10-24 14:54:00
11:54 AM,79.0,53.1,40,30.15,10.0,WSW,9.2,16.1,N/A,,Clear,240,2012-10-24 15:54:00
12:54 PM,81.0,52.0,36,30.12,10.0,West,5.8,-,N/A,,Clear,270,2012-10-24 16:54:00
1:54 PM,84.0,52.0,33,30.10,10.0,WSW,8.1,-,N/A,,Clear,240,2012-10-24 17:54:00
3:54 PM,82.0,55.0,39,30.09,10.0,South,6.9,-,N/A,,Clear,180,2012-10-24 19:54:00
4:54 PM,81.0,54.0,39,30.09,10.0,SSW,9.2,-,N/A,,Clear,200,2012-10-24 20:54:00
5:54 PM,75.0,53.1,46,30.10,10.0,SSW,4.6,-,N/A,,Clear,210,2012-10-24 21:54:00
6:54 PM,69.1,54.0,58,30.11,10.0,Calm,Calm,-,N/A,,Clear,0,2012-10-24 22:54:00
7:54 PM,63.0,55.0,75,30.12,10.0,Calm,Calm,-,N/A,,Clear,0,2012-10-24 23:54:00
8:54 PM,63.0,55.0,75,30.12,10.0,South,4.6,-,N/A,,Clear,180,2012-10-25 00:54:00
9:54 PM,66.9,59.0,76,30.14,10.0,South,5.8,-,N/A,,Clear,190,2012-10-25 01:54:00
10:54 PM,66.9,61.0,81,30.14,10.0,South,6.9,-,N/A,,Clear,190,2012-10-25 02:54:00
11:54 PM,66.9,62.1,84,30.14,10.0,SSW,8.1,-,N/A,,Clear,210,2012-10-25 03:54:00